Tracking 33485 objects as of 15-Mar-2026
HD Live streaming from Space Station
objects crossing your sky now

STARLINK-35730

Track STARLINK-35730 now!
10-day predictions
STARLINK-35730 is classified as:


NORAD ID: 66273
Int'l Code: 2025-247J
Perigee: 481.7 km
Apogee: 483.0 km
Inclination: 53.2 °
Period: 94.1 minutes
Semi major axis: 6853 km
RCS: Unknown
Launch date: October 31, 2025
Source: United States (US)
Launch site: AIR FORCE WESTERN TEST RANGE (AFWTR)
Your satellite tracking list
Your tracking list is empty




NASA's NSSDC Master Catalog

Two Line Element Set (TLE):
1 66273U 25247J   26073.63335886  .00013714  00000-0  47420-3 0  9990
2 66273  53.1589 168.2627 0000970  86.6871 273.4240 15.30205032 21849
Source of the keplerian elements: AFSPC